Flag for Sweden Weather past 2 weeks in Växjö, Sweden

Now
27 °F

Clear.


Feels Like: 27 °F
Forecast: 38 / 57 °F
Wind: No wind

Location: Vaxjo Airport


UV Index: 0 (Low)

Visibility: 10 mi


Pressure: 30.33 "Hg

Humidity: 86%

Dew point: 23 °F

Location of VäxjöLocation

Historic Weather in Växjö

°F

Växjö temperature yesterday

Maximum temperature yesterday: 52 °F (at 4:20 PM)
Minimum temperature yesterday: 32 °F (at 11:50 PM)
Average temperature yesterday: 44 °F

Past Weeks' High & Low Weather Summary

 TemperatureHumidityPressure
High57 °F (Apr 6, 2:50 PM)100% (Apr 1, 8:20 AM)30.33 "Hg (Apr 1, 8:20 AM)
Low21 °F (Apr 4, 4:20 AM)30% (Apr 4, 3:50 PM)29.45 "Hg (Apr 14, 5:50 AM)
Average42 °F77%29.88 "Hg
* Reported Apr 1 6:20 AM — Apr 16 6:20 AM, Växjö, Weather by CustomWeather, © 2014

Note: Actual official high and low records may vary slightly from our data, if they occured in-between our weather recording intervals... More about our weather records

Advertising

Historic Weather Conditions — Data for Previous 24 hours

 ConditionsComfort  
Time TempWeatherWind HumidityBarometerVisibility
6:20 AM
Apr 16
25 °FClear.No wind93%30.33 "Hg10 mi
5:51 AM25 °FClear.2 mph93%30.33 "Hg10 mi
5:20 AM27 °FChilly.2 mph93%30.33 "HgN/A
4:50 AM27 °FChilly.3 mph86%30.33 "HgN/A
4:20 AM27 °FChilly.1 mph86%30.30 "HgN/A
3:50 AM27 °FChilly.3 mph86%30.30 "HgN/A
3:20 AM28 °FChilly.3 mph86%30.30 "HgN/A
2:50 AM28 °FChilly.3 mph80%30.30 "HgN/A
2:20 AM27 °FChilly.3 mph86%30.30 "HgN/A
1:20 AM30 °FClear.3 mph80%30.27 "Hg10 mi
12:20 AM32 °FClear.2 mph75%30.27 "Hg10 mi
11:50 PM
Apr 15
32 °FClear.2 mph75%30.27 "Hg10 mi
10:50 PM36 °FPassing clouds.3 mph65%30.24 "HgN/A
10:20 PM37 °FChilly.7 mph60%30.24 "HgN/A
9:57 PM37 °FClear.7 mph60%30.24 "Hg10 mi
9:20 PM39 °FPassing clouds.7 mph56%30.21 "HgN/A
8:50 PM43 °FPassing clouds.3 mph49%30.21 "HgN/A
8:23 PM43 °FSunny.5 mph49%30.21 "Hg10 mi
7:50 PM45 °FQuite cool.8 mph42%30.18 "HgN/A
7:20 PM48 °FCool.12 mph34%30.15 "HgN/A
6:50 PM50 °FSunny.13 mph32%30.15 "Hg10 mi
6:20 PM50 °FCool.15 mph30%30.12 "HgN/A
5:50 PM52 °FSunny.14 mph32%30.12 "Hg10 mi
5:20 PM52 °FSunny.15 mph32%30.09 "Hg10 mi
4:50 PM52 °FPassing clouds.16 mph32%30.09 "HgN/A
4:20 PM52 °FScattered clouds.15 mph35%30.09 "HgN/A
3:50 PM50 °FSunny.14 mph40%30.07 "Hg10 mi
3:20 PM50 °FScattered clouds.15 mph40%30.07 "HgN/A
2:50 PM50 °FPartly sunny.13 mph43%30.07 "HgN/A
2:20 PM48 °FPartly sunny.13 mph50%30.04 "HgN/A
1:50 PM48 °FScattered clouds.13 mph54%30.04 "HgN/A
1:20 PM48 °FPassing clouds.15 mph54%30.04 "HgN/A
12:50 PM48 °FPassing clouds.14 mph54%30.01 "HgN/A
12:20 PM48 °FScattered clouds.15 mph54%30.01 "HgN/A
11:50 AM48 °FPartly sunny.16 mph58%29.98 "HgN/A
11:20 AM46 °FPartly sunny.15 mph57%29.98 "HgN/A
10:50 AM46 °FPartly sunny.15 mph57%29.95 "HgN/A
10:20 AM45 °FScattered clouds.16 mph66%29.95 "HgN/A
9:50 AM45 °FSunny.15 mph66%29.92 "Hg10 mi
9:20 AM45 °FSunny.16 mph66%29.92 "Hg10 mi
8:50 AM41 °FPartly sunny.15 mph70%29.89 "HgN/A
8:20 AM41 °FScattered clouds.13 mph70%29.89 "HgN/A
Weather by CustomWeather, © 2014

See weather overview